{"data":{"norad_id":62712,"epoch":"2026-05-24T04:49:19.202016Z","epoch_age_seconds":137357,"freshness":"FRESH","line1":"1 62712U 25009DH  26144.20091669  .00006071  00000+0  45168-3 0  9994","line2":"2 62712  97.7275 227.2920 0001321 233.1803 126.9301 15.03332010 74021","mean_motion":15.0333201,"eccentricity":0.0001321,"inclination_deg":97.7275,"raan_deg":227.292,"arg_perigee_deg":233.1803,"mean_anomaly_deg":126.9301,"bstar":0.00045168,"rev_number":7402,"period_min":95.787224007822,"perigee_km":555.71441023466,"apogee_km":557.54657580632,"semimajor_km":6934.7674930205,"source":"CELESTRAK","updated_at":"2026-05-25T13:38:13.538593Z"}}